Location: Vibo Valentia
(38.6670°N, 16.1000°E)
Time: 13:30:38
(UTC+01:00)

STARLINK-1353 - Pass Details

Date: 08 October 2020
Orbit: 530 x 533 km, 53.0° (Epoch: 27 October)

Event Time Altitude Azimuth Distance (km) Brightness Sun altitude
Exits shadow 06:09:46 - 321° (NW) 2,448 6.6 -10.3°
Reaches altitude 10° 06:12:02 10° 340° (NNW) 1,785 6.0 -9.8°
Maximum altitude 06:14:36 16° 20° (NNE) 1,437 6.0 -9.3°
Drops below altitude 10° 06:17:11 10° 59° (ENE) 1,784 7.2 -8.8°
Sets 06:20:06 0° 82° (E) 2,673 9.3 -8.3°
